Regional Weather Roundup
Issued by NWS

Home | Current Version | Previous Version | Graphics & Text | Print | Product List | Glossary On
Versions: 1 2 3 4 5 6 7 8 9 10 11 12 13 14 15 16 17 18 19 20 21 22 23 24 25 26 27 28 29 30 31 32 33 34 35 36 37 38 39 40 41 42 43 44 45 46 47 48 49 50
000
ASUS43 KLOT 101958
RWRIL

ILLINOIS REGIONAL WEATHER ROUNDUP
NATIONAL WEATHER SERVICE CHICAGO/ROMEOVILLE IL
300 PM CDT THU JUL 10 2014

NOTE: "FAIR" INDICATES FEW OR NO CLOUDS BELOW 12,000 FEET WITH NO
SIGNIFICANT WEATHER AND/OR OBSTRUCTIONS TO VISIBILITY.

* THESE STATIONS ARE NOT UNDER NWS QUALITY CONTROL. THEY ALSO MAY NOT
  REPORT WEATHER SUCH AS PRECIPITATION OR FOG.

ILZ001-002-007-009-015-016-024-102100-
NORTHWEST ILLINOIS

CITY           SKY/WX    TMP DP  RH WIND       PRES   REMARKS
MOLINE         SUNNY     81  58  45 SE8G16    30.12S HX  81
$$

ILZ003-004-008-010-011-017-018-102100-
NORTH CENTRAL ILLINOIS

CITY           SKY/WX    TMP DP  RH WIND       PRES   REMARKS
ROCKFORD       NOT AVBL
$$

ILZ005-006-012>014-019>023-102100-
NORTHEAST ILLINOIS

CITY           SKY/WX    TMP DP  RH WIND       PRES   REMARKS
CHICAGO-OHARE  MOSUNNY   77  54  44 E8        30.15F
CHICAGO-MIDWAY MOSUNNY   77  55  46 NE14      30.16F
AURORA         MOSUNNY   78  53  41 VRB5      30.15F
WAUKEGAN       SUNNY     71  58  63 E10       30.17F
DUPAGE AIRPORT MOSUNNY   79  53  40 NE7       30.15F
WHEELING       SUNNY     76  56  49 NE12      30.17F
NORTHERLY ISL    N/A     70  61  73 E9          N/A
$$

LMZ740>746-102100-
SOUTHERN LAKE MICHIGAN

STATION/POSITION SKY/WX   TEMP    WIND        PRES    VSBY  WAVE
                          AIR SEA DIR/SP/G                  HT/PER
                          (F)     (DEG/KT/KT) (MB)    (MI)  (FT/S)
SOUTHERN BUOY              62 62   CALM  /  2 1022.9F         0
WAUKEGAN HARBOR            65     120/  8/ 10 1023.0F
HARRISON CRIB              66      80/ 12/ 13   N/A
BURNHAM HARBOR             69     100/  8/  9   N/A
CALUMET HARBOR             68      60/ 11/ 13 1022.5F
MICHIGAN CITY              68      10/  7/  8   N/A
$$

ILZ025>027-034>036-040-047-049-050-058-095>099-102100-
WEST-CENTRAL ILLINOIS

CITY           SKY/WX    TMP DP  RH WIND       PRES   REMARKS
$$

ILZ028>032-037-038-041>044-048-051>054-059>061-102100-
CENTRAL ILLINOIS

CITY           SKY/WX    TMP DP  RH WIND       PRES   REMARKS
PEORIA         NOT AVBL
SPRINGFIELD    MOSUNNY   81  57  43 E8        30.14F HX  81
TAYLORVILLE    NOT AVBL
$$

ILZ033-039-045-046-055>057-062-063-102100-
EAST-CENTRAL ILLINOIS

CITY           SKY/WX    TMP DP  RH WIND       PRES   REMARKS
CHAMPAIGN      MOSUNNY   79  54  41 E9        30.15F
MATTOON        SUNNY     80  52  37 NE10      30.13F HX  80
$$

ILZ079-100>102-102100-
SOUTHWEST ILLINOIS

CITY           SKY/WX    TMP DP  RH WIND       PRES   REMARKS
ALTON          MOSUNNY   81  55  41 VRB3      30.12F HX  80
CAHOKIA*       MOSUNNY   84  58  40 VRB6      30.10F HX  83
$$

ILZ064>066-069>071-074>076-080>082-084>086-088>090-092>094-102100-
SOUTH-CENTRAL ILLINOIS

CITY           SKY/WX    TMP DP  RH WIND       PRES   REMARKS
CARBONDALE     PTSUNNY   83  59  44 N5        30.10F HX  83
MARION         PTSUNNY   82  59  44 NE6       30.11F HX  82
$$

ILZ067-068-072-073-078-083-087-091-102100-
SOUTHEAST ILLINOIS

CITY           SKY/WX    TMP DP  RH WIND       PRES   REMARKS
$$

ABBREVIATIONS USED IN REMARKS
   TC - TEMPERATURE IN CELSIUS
  WCI - WIND CHILL INDEX
   HX - HEAT INDEX
  VSB - VISIBILITY
$$




USA.gov is the U.S. government's official web portal to all federal, state and local government web resources and services.